Weather History for Big Piney, WY

Change the Weather History Date:

Tuesday, April 23, 2013

  Actual Average Record
Temperature  
Mean Temperature 16 °F 39 °F  
Max Temperature 36 °F 55 °F 77 °F (2012)
Min Temperature -5 °F 24 °F -5 °F (2013)
Degree Days  
Heating Degree Days 49 26  
Month to date heating degree days 753 662  
Since 1 July heating degree days 8735 9357  
Cooling Degree Days 0 0  
Month to date cooling degree days 0 0  
Year to date cooling degree days 0 0  
Moisture  
Dew Point 11 °F    
Average Humidity 68    
Maximum Humidity 92    
Minimum Humidity 44    
Precipitation  
Precipitation T in 0.02 in 0.10 in (1999)
Month to date precipitation 0.25 0.37  
Year to date precipitation 0.44 1.47  
Sea Level Pressure  
Sea Level Pressure 30.24 in    
Wind  
Wind Speed 4 mph (WSW)    
Max Wind Speed 12 mph    
Max Gust Speed 15 mph    
Visibility 8 miles    
Events Snow    
T = Trace of Precipitation, MM = Missing Value Source: NWS Daily Summary

Daily Weather History Graph

Daily Weather History Graph

Search for Another Location

Airport:

Trip Planner

Search our weather history database for the weather conditions in past years. The results will help you decide how hot, cold, wet, or windy it might be!

Date:

Astronomy

Apr. 23, 2013 Rise Set
Actual Time 6:26 AM MDT 8:11 PM MDT
Civil Twilight 5:56 AM MDT 8:41 PM MDT
Nautical Twilight 5:19 AM MDT 9:18 PM MDT
Astronomical Twilight 4:40 AM MDT 9:58 PM MDT
Moon 6:08 PM MDT (4/23) 4:59 AM MDT (4/23)
Length of Visible Light 14h 45m
Length of Day
13h 45m
Waxing Gibbous, 94% of the Moon is Illuminated
Apr 23
Waxing Gibbous
Apr 25
Full
May 2
Last Quarter
May 9
New
May 17
First Quarter

Hourly Weather History & Observations

Time (MDT) Temp. Windchill Dew Point Humidity Pressure Visibility Wind Dir Wind Speed Gust Speed Precip Events Conditions
12:18 AM 17.6 °F 5.7 °F 15.8 °F 93% 30.18 in 2.0 mi SW 10.4 mph - 0.00 in Snow Light Snow
12:32 AM 17.6 °F 7.3 °F 15.8 °F 93% 30.17 in 3.0 mi SW 8.1 mph - 0.00 in Snow Light Snow
12:49 AM 17.6 °F 6.4 °F 15.8 °F 93% 30.17 in 4.0 mi SW 9.2 mph - 0.00 in Snow Light Snow
12:53 AM 18.0 °F 7.7 °F 15.1 °F 88% 30.26 in 4.0 mi SW 8.1 mph - 0.00 in Snow Light Snow
1:05 AM 17.6 °F 5.7 °F 14.0 °F 86% 30.18 in 2.5 mi SW 10.4 mph - 0.00 in Snow Light Snow
1:28 AM 17.6 °F 8.2 °F 14.0 °F 86% 30.18 in 1.8 mi SW 6.9 mph - 0.00 in Snow Light Snow
1:37 AM 17.6 °F 9.3 °F 14.0 °F 86% 30.18 in 2.0 mi SW 5.8 mph - 0.00 in Snow Light Snow
1:46 AM 17.6 °F 9.3 °F 14.0 °F 86% 30.18 in 1.8 mi SW 5.8 mph - 0.00 in Snow Light Snow
1:53 AM 17.1 °F 7.6 °F 14.0 °F 88% 30.27 in 2.5 mi SW 6.9 mph - 0.00 in Snow Light Snow
2:01 AM 17.6 °F 7.3 °F 12.2 °F 79% 30.17 in 3.0 mi SW 8.1 mph - 0.00 in Snow Light Snow
2:39 AM 12.2 °F 1.7 °F 8.6 °F 85% 30.17 in 8.0 mi SSW 6.9 mph - 0.00 in   Overcast
2:53 AM 12.0 °F 4.1 °F 9.0 °F 88% 30.30 in 10.0 mi SSW 4.6 mph - 0.00 in   Overcast
3:18 AM 12.2 °F 6.1 °F 10.4 °F 92% 30.17 in 10.0 mi SSW 3.5 mph - N/A   Overcast
3:53 AM 14.0 °F 8.2 °F 10.4 °F 86% 30.17 in 10.0 mi SW 3.5 mph - N/A   Overcast
4:53 AM 14.0 °F 6.5 °F 10.0 °F 84% 30.28 in 10.0 mi South 4.6 mph - N/A   Overcast
5:11 AM 12.2 °F 6.1 °F 10.4 °F 92% 30.17 in 10.0 mi SSW 3.5 mph - N/A   Overcast
5:38 AM 1.4 °F -14.5 °F -2.2 °F 85% 30.17 in 10.0 mi NNW 10.4 mph - N/A   Scattered Clouds
5:53 AM 1.0 °F -14.9 °F -2.0 °F 87% 30.35 in 10.0 mi North 10.4 mph - N/A   Clear
6:53 AM -2.9 °F - -7.1 °F 82% 30.39 in 9.0 mi Calm Calm - N/A   Clear
7:53 AM 3.0 °F -6.4 °F -0.0 °F 87% 30.38 in 10.0 mi North 4.6 mph - N/A   Scattered Clouds
8:02 AM 3.2 °F - -0.4 °F 85% 30.20 in 10.0 mi Calm Calm - N/A   Mostly Cloudy
8:46 AM 6.8 °F - 3.2 °F 85% 30.20 in 9.0 mi Calm Calm - N/A   Scattered Clouds
8:53 AM 3.9 °F - -0.0 °F 84% 30.39 in 9.0 mi Calm Calm - N/A   Partly Cloudy
9:53 AM 10.0 °F - 6.1 °F 84% 30.36 in 10.0 mi Calm Calm - N/A   Clear
10:53 AM 18.0 °F 12.7 °F 10.9 °F 74% 30.32 in 10.0 mi East 3.5 mph - N/A   Clear
11:53 AM 19.0 °F - 12.9 °F 77% 30.31 in 10.0 mi Calm Calm - N/A   Clear
12:53 PM 21.0 °F - 14.0 °F 74% 30.28 in 10.0 mi Calm Calm - N/A   Clear
1:53 PM 23.0 °F 17.0 °F 16.0 °F 74% 30.26 in 10.0 mi SW 4.6 mph - N/A   Clear
2:53 PM 27.0 °F 23.0 °F 18.0 °F 69% 30.25 in 10.0 mi Variable 3.5 mph - N/A   Clear
3:53 PM 32.0 °F - 18.0 °F 56% 30.19 in 10.0 mi Calm Calm - N/A   Clear
4:53 PM 34.0 °F - 18.0 °F 52% 30.16 in 10.0 mi Calm Calm - N/A   Clear
5:53 PM 35.1 °F - 16.0 °F 46% 30.21 in 10.0 mi Calm Calm - N/A   Partly Cloudy
6:53 PM 35.1 °F 26.9 °F 15.1 °F 44% 30.23 in 10.0 mi North 11.5 mph - N/A   Clear
7:53 PM 32.0 °F 24.2 °F 17.1 °F 54% 30.21 in 10.0 mi North 9.2 mph - N/A   Clear
8:53 PM 28.9 °F 21.1 °F 19.0 °F 67% 30.24 in 10.0 mi North 8.1 mph - N/A   Clear
9:53 PM 28.9 °F 20.4 °F 19.9 °F 69% 30.23 in 10.0 mi NNW 9.2 mph - N/A   Clear
10:53 PM 28.0 °F 20.8 °F 19.9 °F 72% 30.20 in 10.0 mi NW 6.9 mph - N/A   Partly Cloudy
11:53 PM 27.0 °F 20.5 °F 18.0 °F 69% 30.21 in 10.0 mi NW 5.8 mph - N/A   Clear